Regional Weather Roundup
Issued by NWS

Home | Current Version | Previous Version | Graphics & Text | Print | Product List | Glossary On
Versions: 1 2 3 4 5 6 7 8 9 10 11 12 13 14 15 16 17 18 19 20 21 22 23 24 25 26 27 28 29 30 31 32 33 34 35 36 37 38 39 40 41 42 43 44 45 46 47 48 49 50
000
ASUS43 KMPX 262310
RWRMN
WEATHER ROUNDUP FOR MINNESOTA
NATIONAL WEATHER SERVICE TWIN CITIES/CHANHASSEN MN
600 PM CDT THU APR 26 2018


NOTE: "FAIR" INDICATES FEW OR NO CLOUDS BELOW 12,000 FEET WITH NO
SIGNIFICANT WEATHER AND/OR OBSTRUCTIONS TO VISIBILITY. N/A MEANS
CURRENT SKY AND/OR WEATHER CONDITIONS ARE NOT AVAILABLE.

MNZ060>063-068>070-270000-
   Twin Cities Metro

CITY           SKY/WX    TMP DP  RH WIND       PRES   REMARKS
TWIN CITIES    FAIR      63  28  26 N16       29.88R
ST PAUL        FAIR      63  32  31 N18G26    29.87S
CRYSTAL        FAIR      62  27  26 N18G26    29.88R
BLAINE         MOSUNNY   63  28  27 N18G24    29.88R
LAKEVILLE      FAIR      61  30  31 NW16G26   29.87R
EDEN PRAIRIE   FAIR      63  32  31 N15G22    29.87S
SOUTH ST PAUL  FAIR      64  31  29 N14G20    29.86S
LAKE ELMO      FAIR      61  30  31 N16       29.88R
$$
MNZ001>005-007-008-013>017-022>024-027-028-270000-
   Northwest Minnesota

CITY           SKY/WX    TMP DP  RH WIND       PRES   REMARKS
BEMIDJI        FAIR      55  20  25 NW15      29.95R
HALLOCK        FAIR      61  23  23 NW5       29.90F
ROSEAU         FAIR      55  27  33 W9G16     29.92F
WARROAD        FAIR      55  23  28 W7        29.92F
THIEF RVR FALL FAIR      57  26  30 NW15G22   29.96F
CROOKSTON      FAIR      59  30  33 N8G16     29.96
FOSSTON        FAIR      55  25  30 NW18      29.97F
DETROIT LAKES  FAIR      54  28  37 NW16G28   30.00S
MOORHEAD       FAIR      61  28  29 NW16      29.99F
PARK RAPIDS    FAIR      56  23  27 NW20G29   29.95S
MAHNOMEN       FAIR      56  28  34 N16G23    29.97F
$$
MNZ006-009>011-018-025>026-270000-
   North Central Minnesota

CITY           SKY/WX    TMP DP  RH WIND       PRES   REMARKS
BAUDETTE       FAIR      53  20  27 NW10      29.92F
FLAG ISLAND    FAIR      46  25  42 S8        29.89F
INTL FALLS     FAIR      53  25  33 NW13G20   29.91S
WASKISH        FAIR      50  28  43 W7        29.93S
BIG FORK       FAIR      55  21  26 NW7       29.92R
LONGVILLE      FAIR      55  19  24 N8G17     29.94S
GRAND RAPIDS   FAIR      55  24  30 NW14      29.93R
CRANE LAKE     FAIR      50  21  32 NW6       29.92S
ORR            FAIR      54  18  24 N6        29.88S
COOK           FAIR      54  27  35 N9        29.90S
WALKER         FAIR      54  18  24 NW15G23   29.95S
$$
MNZ012-019>021-037-270000-
   Northeast Minnesota

CITY           SKY/WX    TMP DP  RH WIND       PRES   REMARKS
DULUTH         FAIR      54  27  35 VRB6      29.88S
ELY            PTSUNNY   52  21  30 NW8G17    29.89S
HIBBING        FAIR      54  24  31 NW21      29.89R
EVELETH        FAIR      55  23  29 N12G21    29.90R
DULUTH HARBOR  FAIR      48  36  61 E10       29.89F
TWO HARBORS    FAIR      61  32  33 NW5       29.86S
SILVER BAY     FAIR      55  25  30 N10G17    29.87R
GRAND MARAIS     N/A     54  29  38 VRB7      29.88R
G MARAIS ARPRT FAIR      45  25  45 NW7       29.88R
$$
MNZ029>031-032-039>041-046>048-054>057-064-270000-
   West Central Minnesota

CITY           SKY/WX    TMP DP  RH WIND       PRES   REMARKS
FERGUS FALLS   FAIR      57  30  35 N16G25    29.97S
WHEATON        SUNNY     57  27  30 NW21      30.03S
MORRIS         SUNNY     57  34  41 N20G31    30.00S
ALEXANDRIA     FAIR      57  23  26 NW21G26   29.99R
ELBOW LAKE     FAIR      54  30  39 NW18G28   30.00F
WADENA         FAIR      54  27  35 N16G25    29.96F
GLENWOOD       FAIR      55  27  33 NW17G24   29.99R
APPLETON       SUNNY     59  28  31 N17G25    30.01R
BENSON         SUNNY     57  25  28 N21G31    30.01S
ORTONVILLE     SUNNY     57  30  35 N21G29    30.01S
MADISON        SUNNY     61  32  33 N22G30    30.02R
WILLMAR        FAIR      55  30  38 NW18G25   30.00R
$$
MNZ033>034-036-042>043-049>051-058-059-270000-
   Central Minnesota

CITY           SKY/WX    TMP DP  RH WIND       PRES   REMARKS
ST CLOUD       FAIR      61  28  28 NW15G24   29.91R
SAUK CENTRE    FAIR      56  28  35 NW20G28   29.97R
PAYNESVILLE    FAIR      57  32  38 NW17G24   29.96R
AITKIN         FAIR      55  25  30 NW10G18   29.91R
PINE RIVER     FAIR      54  25  32 NW12G17   29.97R
BRAINERD       FAIR      58  25  28 N10G20    29.93S
STAPLES        FAIR      55  21  26 NW13G22   29.95S
LONG PRAIRIE   FAIR      55  28  35 W21G26    29.96R
LITTLE FALLS   FAIR      59  10  14 NW14G26   29.93S
LITCHFIELD     FAIR      59  30  33 NW20G26   29.95R
BUFFALO        FAIR      61  28  28 NW16G24   29.91R
MAPLE LAKE     FAIR      62  32  33 NW12      29.92R
HUTCHINSON     FAIR      59  35  41 NW17G24   29.95R
$$
MNZ037-044-045-052-053-270000-
   East Central Minnesota

CITY           SKY/WX    TMP DP  RH WIND       PRES   REMARKS
PRINCETON      FAIR      61  27  27 NW16      29.91S
MORA           FAIR      55  28  35 NW15G21   29.92R
CAMBRIDGE      FAIR      61  37  41 NW13G20   29.91R
RUSH CITY      FAIR      58  31  35 NW15G22   29.89R
MOOSE LAKE     FAIR      59  30  33 N9G16     29.88S
HINCKLEY       FAIR      59  32  36 N10G22    29.89R
CLOQUET        FAIR      55  19  24 NW13G20   29.88F
MCGREGOR       FAIR      57  28  33 NW18      29.91S
$$
MNZ071>073-080-081-089-090-097-098-270000-
   Southwest Minnesota

CITY           SKY/WX    TMP DP  RH WIND       PRES   REMARKS
MONTEVIDEO     SUNNY     57  30  35 N23G33    30.01R
GRANITE FALLS  SUNNY     58  33  39 NW22G30   30.01S
CANBY          SUNNY     60  31  34 N18G26    30.02F
MARSHALL       SUNNY     56  36  47 N20G25    30.01R
REDWOOD FALLS  SUNNY     56  29  35 NW22G35   29.97S
OLIVIA         SUNNY     55  32  41 NW18G29   29.97R
PIPESTONE      SUNNY    N/A N/A N/A N18G30    30.02S
WINDOM         SUNNY     55  30  38 NW24G36   29.98S
WORTHINGTON    SUNNY     56  35  45 NW21G30   30.01S
JACKSON        SUNNY     54  34  47 NW26G37   29.98S
TRACY          SUNNY     56  37  48 N22G30    30.00S
SLAYTON        SUNNY     55  36  49 N16G24    30.01S
$$
MNZ065>067-074>077-082>085-091>093-270000-
   South Central Minnesota

CITY           SKY/WX    TMP DP  RH WIND       PRES   REMARKS
MANKATO        FAIR      59  31  34 NW24      29.91R
NEW ULM        SUNNY     57  28  33 NW21G33   29.95R
ST JAMES       SUNNY     55  37  50 NW22G33   29.97R
FAIRMONT       SUNNY     56  35  45 NW23G29   29.95S
GLENCOE        FAIR      60  35  39 W20G25    29.92R
OWATONNA       FAIR      63  34  34 NW18      29.88S
WASECA         FAIR      59  32  36 NW17G23   29.91S
ALBERT LEA     FAIR      61  27  27 NW16G24   29.89S
$$
MNZ078>079-086>088-094>096-270000-
   Southeast Minnesota

CITY           SKY/WX    TMP DP  RH WIND       PRES   REMARKS
ROCHESTER      FAIR      61  39  44 NW16      29.85R
RED WING       FAIR      64  25  22 N14       29.84R
STANTON        FAIR      64  31  29 NW20      29.85S
DODGE CENTER   FAIR      61  28  29 NW17G24   29.87R
WINONA         FAIR      64  36  34 N15G22    29.79S
AUSTIN         FAIR      61  34  36 NW20G28   29.86S
PRESTON        FAIR      62  38  40 NW14      29.84S
$$
ABBREVIATIONS USED IN REMARKS
   TC - TEMPERATURES IN CELSIUS
  WCI - WIND CHILL INDEX
   HX - HEAT INDEX
  VSB - VISIBILITY
$$




USA.gov is the U.S. government's official web portal to all federal, state and local government web resources and services.